METAR Formatted Surface Weather Observation
Issued by NWS

Home | Current Version | Previous Version | Text Only | Print | Product List | Glossary On
Versions: 1 2 3 4 5 6 7 8 9 10 11 12 13 14 15 16 17 18 19 20 21 22 23 24 25 26 27 28 29 30
000
SAUS42 KTAE 281759
MTR1J0
METAR K1J0 281758Z AUTO VRB03KT 10SM FEW050 SCT070 36/23 A2997 RMK
AO2 SLP106 T03560233 10367 20250 56009



USA.gov is the U.S. government's official web portal to all federal, state and local government web resources and services.